GEFSMW_con_maxscp_144.txt.gz
SCP
8 10 14 14 13 11 10 9 8 6 5 5 5 6 5 5 4 4 3 3 2 2 2 2 2 2 1 1 1 1 1 1 1 0 0 0 0 0 0 0 0 1 1
8 11 15 15 12 11 10 9 7 6 5 5 5 5 6 5 4 4 3 3 2 2 2 2 2 1 1 1 1 1 1 1 0 0 0 0 1 1 1 1 1 1 1
8 10 12 11 9 9 9 8 6 6 5 5 5 5 6 6 5 4 4 3 3 2 2 2 2 2 1 1 1 1 1 1 0 0 1 1 1 1 1 1 1 1 1
7 7 8 7 6 7 8 7 6 6 5 5 5 5 5 5 5 5 4 4 4 3 3 3 3 2 2 1 1 1 1 1 1 1 1 1 1 1 1 1 1 1 1
5 5 6 7 6 6 7 7 6 6 5 5 5 4 4 4 5 5 5 4 4 4 3 3 3 3 2 2 1 1 1 1 1 1 1 1 1 1 1 1 1 1 1
5 5 7 8 7 6 6 7 7 6 5 5 5 4 4 4 5 5 5 4 4 4 4 3 3 3 3 2 2 1 1 1 1 1 1 1 1 1 1 0 0 0 0
4 5 7 9 9 8 7 7 7 6 4 4 4 4 4 4 4 4 4 3 3 3 4 4 4 3 3 2 2 2 2 2 2 2 2 1 1 1 1 1 0 0 0
3 4 6 10 11 9 8 7 7 5 4 4 4 4 3 3 3 3 3 3 3 3 4 5 4 3 3 2 2 2 2 2 2 2 1 1 1 1 1 1 0 0 0
2 3 6 9 10 9 7 7 6 5 4 3 3 3 2 3 3 3 2 2 3 3 4 5 4 3 3 2 2 2 2 2 1 1 1 1 1 1 1 1 0 0 0
2 2 4 6 7 6 6 6 6 5 5 4 2 2 2 3 3 3 3 3 3 3 4 4 4 3 3 3 2 2 2 2 1 1 1 0 0 0 1 1 1 1 1
2 2 3 4 4 4 5 5 4 5 5 4 2 2 2 2 3 3 3 3 3 3 4 4 3 3 3 3 3 2 2 2 2 1 1 1 1 1 1 1 1 1 1
2 3 4 4 4 4 4 3 3 3 3 3 2 2 2 2 3 3 3 3 3 3 3 3 3 3 2 2 2 2 2 2 2 1 1 1 1 1 1 1 1 1 1
3 4 4 4 4 3 3 3 3 3 2 2 2 2 2 2 3 3 3 3 3 3 3 3 3 3 3 2 2 2 2 2 2 2 1 1 1 1 1 1 1 1 1
4 4 4 4 3 3 2 2 2 2 2 2 2 3 3 3 3 3 3 3 3 3 3 4 4 3 3 3 2 2 2 2 2 2 2 1 1 1 1 1 1 1 1
3 4 4 4 3 3 3 3 3 3 3 3 3 3 3 3 3 3 3 3 3 3 3 3 4 4 3 2 2 2 1 2 2 2 1 1 1 1 1 1 1 1 1
3 3 4 4 3 3 3 3 3 3 3 3 3 4 4 3 2 2 2 3 3 2 2 3 3 3 2 1 1 1 1 2 2 2 1 1 1 1 1 1 1 1 1
5 5 4 4 4 4 4 3 3 3 3 3 3 3 3 3 2 2 2 3 3 3 2 3 3 2 2 1 0 1 1 2 2 2 2 1 1 1 1 1 1 1 1
7 6 6 5 5 5 4 4 4 3 3 3 3 3 3 2 2 2 2 3 3 3 3 3 3 3 2 1 0 0 1 2 2 2 2 2 1 1 2 2 1 1 1
7 6 6 5 5 5 5 5 4 4 3 3 3 3 3 3 3 3 3 3 4 4 4 4 3 3 3 1 0 0 1 1 2 2 2 2 2 1 1 2 2 2 2
6 6 6 5 5 5 5 4 4 4 3 3 3 4 4 5 5 4 4 4 4 4 4 4 4 4 3 2 0 0 1 1 1 2 2 1 1 1 1 1 2 2 2
6 7 7 6 6 6 5 4 4 3 3 3 3 4 5 5 5 5 5 5 5 4 4 4 4 4 3 2 1 0 0 1 1 2 2 1 1 0 0 1 1 1 1
7 7 7 6 6 6 5 4 4 4 4 4 5 5 5 5 5 5 5 5 5 5 4 4 4 4 3 2 1 0 0 1 1 1 1 1 0 0 0 0 0 1 1
6 7 6 6 5 5 5 4 4 4 4 5 6 6 6 5 5 6 6 5 5 4 4 3 4 4 4 3 2 1 0 0 1 1 1 0 0 0 0 0 0 0 0
5 5 5 5 4 4 4 4 4 4 4 5 5 6 7 7 7 7 6 5 4 3 3 3 3 4 4 4 3 1 0 0 0 0 0 0 0 0 0 0 0 0 0
3 3 3 3 3 3 4 4 4 4 4 4 4 5 7 8 8 6 4 3 3 2 2 2 3 3 4 3 2 1 0 0 0 0 0 0 0 1 1 0 0 0 0
2 2 2 2 1 2 4 5 5 4 3 3 4 5 6 8 8 5 3 2 1 1 1 1 2 2 2 1 1 0 0 0 0 0 0 0 1 1 1 1 1 0 0

GEFSMW_con_maxscp_150.txt.gz
SCP
10 10 8 8 10 10 8 7 6 4 3 2 2 2 2 2 1 2 2 1 1 1 1 1 0 0 0 0 0 0 0 0 0 0 0 0 0 0 0 0 0 0 0
9 9 8 8 10 10 8 7 6 4 4 3 3 2 2 2 2 2 2 2 2 1 1 1 0 0 0 0 0 0 0 0 0 0 0 0 0 0 0 0 0 0 0
7 7 7 7 8 8 8 7 6 5 5 4 3 3 2 2 2 2 2 3 2 1 1 1 1 0 0 0 0 0 0 0 0 0 0 0 0 0 0 0 0 0 0
6 6 6 6 6 6 6 7 7 8 7 6 5 4 3 2 2 2 3 3 2 2 1 1 1 0 0 0 0 0 0 0 0 0 0 0 0 0 0 0 0 0 0
5 5 5 5 5 5 6 7 8 10 10 8 6 4 3 2 2 2 3 3 2 2 1 1 1 0 0 0 0 0 0 0 0 0 0 0 0 0 0 0 0 0 0
5 5 5 4 4 5 6 7 8 10 10 9 7 4 3 2 2 2 3 3 2 2 2 1 1 1 0 0 0 0 0 0 0 0 0 0 0 0 0 0 0 0 0
5 5 4 4 4 4 6 6 7 8 9 8 6 4 3 3 2 2 2 2 2 2 2 2 1 1 1 0 0 0 0 0 0 0 0 0 0 0 0 0 0 0 0
4 4 4 4 4 4 5 5 6 6 7 6 5 3 3 3 2 2 2 2 2 2 2 2 1 1 1 0 0 0 0 0 0 0 0 0 0 0 0 0 0 0 0
3 3 3 4 4 4 4 4 5 4 4 4 4 3 3 3 2 2 2 2 1 1 1 2 2 1 1 1 0 0 0 0 0 0 0 0 0 0 0 0 0 0 0
2 2 3 3 4 4 4 4 4 4 3 3 3 2 2 2 2 2 1 1 1 1 1 1 1 1 1 1 0 0 0 0 0 0 0 0 0 0 0 0 0 0 0
2 2 3 3 3 3 4 4 3 3 2 2 2 2 2 1 1 1 1 1 1 1 1 1 1 1 1 1 0 0 0 0 0 0 0 0 0 0 0 0 0 0 0
2 2 3 3 3 3 3 3 2 2 1 1 1 1 1 1 1 1 1 1 1 1 1 1 1 1 1 1 0 0 0 0 0 0 0 0 0 0 0 0 0 0 0
1 2 3 3 3 3 3 2 2 1 1 1 1 1 1 1 1 1 0 0 1 1 1 1 1 1 1 1 1 1 0 0 0 0 0 0 0 0 0 0 0 0 0
2 2 2 3 3 2 2 2 2 1 1 1 1 1 1 1 0 0 0 0 0 1 1 1 1 1 1 1 1 1 1 0 0 0 0 0 0 0 0 0 0 0 0
2 2 2 2 2 2 2 1 1 1 1 1 1 1 1 1 0 0 0 0 0 1 1 1 1 1 1 1 1 1 1 0 0 0 0 0 0 0 0 0 0 0 0
2 2 2 2 2 2 1 1 1 1 1 1 1 1 1 1 1 1 1 1 1 1 1 1 1 1 1 1 1 1 1 0 0 0 0 0 0 0 0 0 0 0 0
3 2 2 2 2 1 1 1 1 1 1 1 1 1 1 1 1 1 1 1 1 1 1 1 1 1 1 0 0 0 0 0 0 0 0 0 0 0 0 0 0 0 0
4 3 3 2 2 2 1 1 1 1 1 1 1 1 1 1 1 1 1 1 1 1 1 1 1 1 1 0 0 0 0 0 0 0 0 0 0 0 0 0 0 0 0
5 4 3 2 2 2 2 2 1 1 1 1 1 1 1 1 1 1 1 1 1 1 1 1 1 1 1 0 0 0 0 0 0 0 0 0 0 0 0 0 0 0 0
4 3 2 2 2 2 2 2 1 1 1 1 1 1 2 2 2 2 2 1 1 1 1 1 1 1 1 0 0 0 0 0 0 0 0 0 0 0 0 0 0 0 0
2 2 2 1 2 2 2 2 2 1 2 2 2 2 2 2 2 2 2 2 2 1 1 1 1 1 1 0 0 0 0 0 0 0 0 0 0 0 0 0 0 0 0
2 2 2 2 2 2 2 2 1 1 2 2 2 2 2 3 3 2 2 2 2 1 1 1 1 1 1 0 0 0 0 0 0 0 0 0 0 0 0 0 0 0 0
1 2 2 2 1 1 1 1 1 1 1 2 2 3 3 3 3 3 2 2 2 2 2 1 1 1 1 0 0 0 0 0 0 0 0 0 0 0 0 0 0 0 0
1 1 1 1 1 1 1 1 1 1 1 1 2 2 3 3 3 3 3 3 2 2 2 2 2 1 1 1 0 0 0 0 0 0 0 0 0 0 0 0 0 0 0
1 1 1 0 0 0 0 0 1 1 1 1 2 2 2 3 3 3 3 2 2 2 2 2 2 2 1 1 0 0 0 0 0 0 0 0 0 0 0 0 0 0 0
0 0 0 0 0 0 0 0 0 0 1 1 2 2 2 2 2 2 2 1 1 1 1 2 2 2 2 1 0 0 0 0 0 0 0 0 0 0 0 0 0 0 0

GEFSMW_con_maxscp_156.txt.gz
SCP
2 2 3 5 5 6 5 4 3 3 2 2 2 1 1 1 1 1 0 0 0 0 0 0 0 0 0 0 0 0 0 0 0 0 0 0 0 0 0 0 0 0 0
3 3 3 4 5 6 5 5 4 3 3 3 2 2 2 1 1 1 1 1 1 1 0 0 0 0 0 0 0 0 0 0 0 0 0 0 0 0 0 0 0 0 0
3 3 2 3 4 5 6 6 5 4 4 4 4 3 2 2 1 1 1 1 1 1 1 1 0 0 0 0 0 0 0 0 0 0 0 0 0 0 0 0 0 0 0
3 2 2 3 4 4 6 7 6 5 5 5 5 5 4 3 2 2 1 1 1 1 1 1 1 1 0 0 0 0 0 0 0 0 0 0 0 0 0 0 0 0 0
3 3 3 3 4 4 5 6 7 5 5 6 6 6 6 5 3 2 2 2 2 1 1 1 1 1 1 0 0 0 0 0 0 0 0 0 0 0 0 0 0 0 0
3 3 3 3 4 4 4 5 6 6 5 5 6 7 6 5 3 2 2 2 2 2 2 1 1 1 1 0 0 0 0 0 0 0 0 0 0 0 0 0 0 0 0
3 3 3 3 3 4 4 4 5 5 4 4 6 7 6 4 3 2 3 3 3 3 2 2 1 1 1 0 0 0 0 0 0 0 0 0 0 0 0 0 0 0 0
3 3 3 3 3 3 4 4 4 3 3 3 5 5 5 3 2 2 3 3 3 3 3 2 2 1 1 1 0 0 0 0 0 0 0 0 0 0 0 0 0 0 0
2 3 2 2 2 2 3 3 3 3 2 3 3 4 3 2 2 2 3 3 3 3 3 2 2 1 1 1 1 0 0 0 0 0 0 0 0 0 0 0 0 0 0
2 2 2 1 1 2 2 3 3 2 2 2 3 3 3 2 2 2 3 3 3 2 2 2 2 1 1 1 1 0 0 0 0 0 0 0 0 0 0 0 0 0 0
1 1 1 1 1 1 2 2 2 2 2 2 2 3 3 2 2 2 2 3 2 2 1 1 2 1 1 1 1 1 0 0 0 0 0 0 0 0 0 0 0 0 0
1 1 1 1 1 1 2 2 2 2 1 2 2 3 3 2 2 1 2 2 2 1 1 1 1 1 1 1 1 0 0 0 0 0 0 0 0 0 0 0 0 0 0
1 1 1 1 2 2 2 2 2 2 1 1 2 2 2 2 1 1 1 1 1 1 1 1 1 1 1 1 0 0 0 0 0 0 0 0 0 0 0 0 0 0 0
0 1 1 1 1 2 2 2 2 2 1 1 1 2 2 1 1 0 1 1 1 1 1 1 1 1 1 1 0 0 0 0 0 0 0 0 0 0 0 0 0 0 0
0 0 0 1 1 1 2 2 2 1 1 1 1 1 1 1 1 1 1 1 1 1 1 1 1 0 0 0 0 0 0 0 0 0 0 0 0 0 0 0 0 0 0
0 0 0 0 1 1 2 2 1 1 1 1 1 1 1 1 1 1 1 1 1 1 1 1 0 0 0 0 0 0 0 0 0 0 0 0 0 0 0 0 0 0 0
0 0 0 0 1 2 2 2 1 1 1 1 1 1 1 1 1 1 1 1 0 0 0 0 1 1 0 0 0 0 0 0 0 0 0 0 0 0 0 0 0 0 0
0 0 0 0 1 1 2 1 1 1 1 1 1 1 1 1 0 0 0 0 0 0 0 0 1 1 1 0 0 0 0 0 0 0 0 0 0 0 0 0 0 0 0
0 0 0 1 1 1 1 1 1 1 1 1 1 0 0 0 0 0 0 0 0 0 0 1 1 1 1 0 0 0 0 0 0 0 0 0 0 0 0 0 0 0 0
0 0 0 1 1 1 1 1 1 1 0 0 0 0 1 0 0 0 0 0 0 0 0 1 1 1 1 0 0 0 0 0 0 0 0 0 0 0 0 0 0 0 0
1 1 0 1 1 1 1 0 0 0 0 0 0 0 1 1 0 0 0 0 0 0 0 1 1 1 0 0 0 0 0 0 0 0 0 0 0 0 0 0 0 0 0
1 1 1 1 1 1 0 0 0 1 1 0 0 0 1 1 1 1 1 1 1 1 1 1 1 0 0 0 0 0 0 0 0 0 0 0 0 0 0 0 0 0 0
1 1 1 1 1 1 1 1 1 1 1 0 0 0 1 1 1 1 1 1 1 1 1 1 1 1 1 0 0 0 0 0 0 0 0 0 0 0 0 0 0 0 0
0 0 0 0 0 0 1 0 0 0 0 0 0 0 1 1 1 1 1 1 1 1 1 1 1 1 1 1 0 0 0 0 0 0 0 0 0 0 0 0 0 0 0
0 0 0 0 0 0 0 0 0 0 0 0 0 1 1 1 1 1 1 1 1 1 1 1 1 1 1 1 1 0 0 0 0 0 0 0 0 0 0 0 0 0 0
0 0 0 0 0 0 0 0 0 0 0 0 0 1 1 1 1 1 1 1 1 1 1 1 1 1 1 1 0 0 0 0 0 0 0 0 0 0 0 0 0 0 0

GEFSMW_con_maxscp_162.txt.gz
SCP
3 3 2 2 3 3 3 3 3 2 2 2 2 2 2 2 2 1 1 1 1 1 1 1 1 1 1 1 1 1 1 1 1 1 1 1 1 1 1 0 0 0 0
3 3 2 3 3 3 3 3 3 3 3 3 3 2 2 2 2 2 2 1 1 1 1 1 1 1 1 1 1 1 1 1 1 1 1 1 0 0 0 0 0 0 0
3 3 3 3 3 3 3 3 4 3 3 3 3 3 3 3 2 2 2 2 2 2 2 1 1 1 1 1 1 1 1 1 1 1 1 1 0 0 0 0 0 0 0
3 3 3 3 4 4 4 4 4 4 4 3 4 4 3 3 3 3 3 3 3 2 2 2 1 1 1 1 1 1 1 1 1 1 1 1 1 0 0 0 0 0 0
2 2 3 4 4 4 4 5 5 5 4 4 4 4 3 3 4 4 4 4 4 3 3 2 2 2 2 2 1 1 1 1 1 1 1 1 1 1 0 0 0 0 0
2 2 3 4 5 5 5 6 6 5 5 4 4 4 3 3 4 4 4 4 4 4 3 3 3 3 3 3 2 2 2 2 2 2 2 2 1 1 1 1 1 0 0
3 2 3 3 4 5 5 6 6 5 5 5 4 3 3 3 4 4 4 4 4 5 4 4 4 4 4 3 3 3 2 2 2 2 2 2 2 1 1 1 1 1 1
4 3 3 3 4 4 5 6 6 6 5 5 4 4 3 3 3 3 4 4 5 5 5 5 4 4 4 4 4 3 3 3 2 2 2 2 2 1 1 1 1 1 1
4 4 4 4 3 3 4 5 6 6 5 4 4 4 4 4 3 3 3 4 5 5 5 4 4 4 4 5 5 4 4 3 3 2 2 2 2 2 1 1 1 1 1
3 3 4 4 3 3 4 5 5 5 4 4 3 3 3 3 3 3 3 4 4 4 4 3 3 3 4 5 5 5 4 4 3 3 2 3 3 2 2 2 2 2 1
2 2 3 3 3 3 3 4 4 4 3 3 3 2 3 3 3 3 3 3 4 4 3 3 3 3 3 4 5 5 5 4 3 3 3 3 3 3 3 3 2 2 2
2 2 2 2 3 3 3 3 3 3 3 3 2 2 2 3 3 3 3 3 3 3 3 3 3 2 2 3 3 4 4 4 3 3 3 3 2 2 2 2 2 1 2
1 1 2 2 3 3 3 3 3 3 3 3 2 2 2 2 2 3 3 3 3 3 3 3 3 2 2 2 2 3 4 4 4 3 3 2 2 2 2 2 1 1 1
2 2 2 2 3 3 3 3 3 3 3 3 2 2 2 2 2 2 3 4 4 3 3 3 2 2 2 2 2 3 3 4 4 4 3 2 2 1 1 1 1 1 2
2 2 2 3 3 3 3 3 3 4 3 3 2 2 2 2 2 2 3 4 3 3 2 2 2 2 2 2 2 2 3 4 4 4 3 2 1 1 1 1 1 1 2
2 2 2 3 3 4 4 3 4 4 3 3 3 3 3 2 2 2 3 3 3 2 2 2 2 2 1 1 1 2 3 3 3 3 2 1 1 1 1 0 1 1 1
2 2 2 3 3 3 3 4 4 4 4 3 3 3 3 2 2 2 2 2 2 2 2 2 2 2 1 1 0 1 2 2 2 2 2 1 1 1 1 1 0 0 1
2 2 2 2 3 3 3 4 5 5 5 4 3 3 3 2 2 2 1 1 1 2 2 2 2 2 1 1 0 1 1 2 2 2 2 1 1 1 1 1 1 1 1
2 2 2 2 2 3 3 4 4 5 4 3 3 2 2 2 2 1 1 1 1 1 1 1 2 2 1 0 0 1 1 2 2 2 2 1 1 1 1 1 1 1 1
2 2 2 2 3 3 3 3 3 3 3 3 2 2 2 2 1 1 1 1 1 1 1 1 1 1 1 0 0 0 1 2 2 2 2 1 1 0 0 1 1 2 2
2 2 2 2 3 3 3 3 2 2 2 2 2 2 2 2 2 1 2 2 2 2 1 1 1 1 1 0 0 0 1 1 2 2 2 1 1 0 0 1 1 1 1
2 2 2 3 3 3 3 3 3 3 2 2 2 2 2 1 1 1 2 2 2 2 2 1 1 1 1 1 0 0 0 1 1 2 2 1 0 0 0 0 0 0 0
2 2 2 2 3 3 3 3 3 3 2 2 1 1 1 1 1 1 2 2 2 2 2 2 2 2 2 2 1 1 0 0 1 1 1 1 0 0 0 0 0 0 0
2 2 2 2 2 2 2 2 2 2 2 1 1 1 1 1 1 1 2 2 2 2 2 2 2 2 3 2 2 2 1 1 0 1 1 0 0 0 0 0 0 0 0
2 2 2 2 2 2 2 2 2 2 1 1 1 1 1 1 1 1 2 2 2 2 2 2 2 2 2 2 2 2 2 1 0 0 0 0 0 0 0 0 0 0 0
2 2 2 2 2 2 1 1 2 1 1 1 1 1 1 1 1 1 1 2 1 1 1 1 1 2 2 1 1 1 1 1 0 0 0 0 0 0 0 0 0 0 0

GEFSMW_con_maxscp_168.txt.gz
SCP
7 7 6 6 6 7 7 7 7 6 5 4 4 4 3 3 3 3 4 4 4 3 2 2 2 2 2 2 2 1 1 1 1 1 1 1 1 1 1 1 1 1 1
6 6 6 6 6 7 7 6 6 5 5 4 4 4 4 4 3 3 4 4 4 4 3 3 2 2 2 2 2 2 1 1 1 1 1 1 1 1 1 1 1 1 1
6 6 6 6 6 6 6 5 5 4 4 4 4 4 5 4 3 3 4 4 4 4 4 3 3 2 2 2 2 2 1 1 1 1 1 1 1 1 1 1 1 1 1
5 6 7 7 6 5 4 4 4 4 4 4 4 5 5 4 4 3 4 4 4 4 4 4 4 3 2 2 2 2 2 1 1 1 1 1 1 1 1 1 1 1 1
5 6 7 7 6 4 4 4 4 4 4 4 5 5 6 5 5 4 4 4 4 3 3 4 4 3 3 2 3 3 3 2 2 1 1 1 1 1 1 1 1 1 1
5 6 7 7 6 5 4 4 4 5 5 5 5 6 7 7 5 5 4 4 3 3 3 3 4 4 4 4 4 5 5 4 3 2 2 2 2 1 1 1 1 1 1
6 6 7 8 8 6 5 5 6 6 6 5 5 6 7 6 5 4 4 4 3 3 3 3 4 5 6 6 6 6 6 5 4 3 3 2 2 2 1 1 1 1 2
6 7 7 7 7 6 6 6 7 7 7 6 6 5 5 5 4 4 4 3 3 3 3 3 4 5 6 6 7 7 7 7 6 5 3 3 2 2 1 1 2 2 2
6 7 8 7 6 6 7 6 6 7 7 7 6 5 5 5 4 4 3 3 3 3 3 3 4 4 5 5 6 6 6 7 6 5 4 3 3 3 2 2 3 2 2
6 7 7 6 6 6 6 6 6 6 6 6 6 5 5 5 5 4 4 3 3 3 3 3 3 4 4 5 5 5 5 5 5 5 4 4 3 4 4 4 3 3 2
5 6 6 6 6 6 5 5 5 6 6 6 5 5 5 4 4 4 4 4 3 3 3 3 3 3 4 4 4 4 4 4 4 4 4 4 4 4 5 5 4 3 3
6 6 6 6 6 5 5 5 5 5 6 6 5 4 4 4 4 4 4 4 4 4 3 3 3 4 4 4 3 3 4 4 4 3 4 4 4 4 5 5 4 4 4
6 6 6 6 6 5 4 4 4 4 5 5 4 4 4 4 4 4 4 4 4 4 4 3 3 4 4 4 3 3 3 3 3 3 3 4 4 5 6 6 5 5 4
5 5 6 6 6 6 5 4 4 4 4 4 4 3 4 4 4 4 4 3 3 3 3 3 3 3 4 4 3 3 3 3 3 3 3 4 4 5 6 5 5 5 4
4 5 7 8 8 7 6 5 5 4 4 4 4 4 4 3 3 3 3 3 3 3 3 3 3 3 3 3 3 3 3 3 3 3 3 3 4 4 4 4 4 4 3
4 6 7 9 9 7 6 6 5 5 4 4 4 4 4 3 3 3 3 3 3 3 2 3 3 3 2 2 2 2 3 3 3 3 2 2 2 2 2 1 2 2 2
5 5 7 8 8 7 7 6 5 5 4 4 4 4 4 4 3 3 3 3 3 3 3 3 3 3 2 1 1 1 2 2 3 2 2 1 1 1 1 1 1 1 1
5 6 6 6 6 6 7 6 6 5 5 5 4 4 4 4 3 3 3 3 3 3 3 3 3 2 1 1 0 0 1 2 2 1 1 1 1 1 1 1 1 1 1
7 7 5 5 5 6 6 5 5 5 5 5 4 4 4 3 3 3 3 3 3 3 2 2 2 1 1 0 0 0 1 1 1 1 1 1 1 0 0 1 1 1 1
8 7 6 5 5 5 5 4 4 4 4 4 3 3 3 2 3 4 3 3 2 2 2 1 1 1 1 0 0 0 1 1 1 1 1 0 0 0 0 0 1 1 1
7 7 7 6 5 4 4 4 4 4 4 3 3 3 2 2 3 3 3 2 2 1 1 1 1 1 1 0 0 0 0 0 1 1 1 0 0 0 0 0 0 0 0
6 6 6 6 5 4 3 4 4 3 3 3 3 3 3 2 2 3 2 2 1 1 1 1 1 1 1 0 0 0 0 0 1 1 1 0 0 0 0 0 0 0 0
4 4 5 5 4 3 3 3 3 2 2 2 3 3 3 3 2 2 1 1 1 1 1 1 1 0 1 1 1 0 0 0 0 0 0 0 0 0 0 0 0 0 0
4 4 4 4 3 3 3 2 2 1 2 2 3 3 3 2 2 1 1 1 1 1 1 1 1 1 1 1 1 1 1 1 0 0 0 0 0 0 0 0 0 0 0
4 4 4 3 3 3 2 2 2 2 2 2 2 3 3 2 1 1 1 1 1 1 1 1 1 1 1 1 1 1 1 1 1 1 1 1 1 1 0 0 0 0 0
5 5 4 3 2 2 2 2 2 2 2 2 2 2 2 1 1 1 1 1 0 0 0 0 1 1 1 0 1 1 1 1 1 1 2 2 1 1 0 0 0 0 0

GEFSMW_con_maxscp_174.txt.gz
SCP
6 6 5 5 5 4 3 3 3 3 2 2 2 1 1 1 1 1 1 1 1 1 1 1 1 1 0 0 0 0 0 0 0 0 0 0 0 0 0 0 0 0 0
5 6 6 6 5 4 3 3 3 3 2 2 2 1 1 1 1 1 1 1 1 1 2 1 1 1 1 0 0 0 0 0 0 0 0 0 0 0 0 0 0 0 0
6 6 6 6 5 4 4 3 3 2 2 2 2 1 1 2 2 1 1 1 1 2 2 1 1 1 1 1 0 0 0 0 0 0 0 0 0 0 0 0 0 0 0
7 7 6 6 5 4 4 4 3 3 2 2 2 2 2 2 2 2 2 1 1 2 1 1 1 1 1 1 1 1 1 1 0 0 0 0 0 0 0 0 0 0 0
8 7 6 6 5 4 4 3 3 3 3 2 2 2 2 2 2 2 2 2 2 2 2 1 1 1 1 1 1 1 1 1 1 1 1 0 0 0 0 0 0 0 0
9 8 7 6 5 4 4 3 3 3 3 3 2 2 2 2 2 2 2 2 2 2 2 1 1 1 1 1 1 1 1 1 1 1 1 1 0 0 0 0 0 0 0
9 9 9 7 5 4 4 4 3 3 3 3 2 2 2 2 1 1 2 2 2 2 2 2 1 1 1 1 1 2 2 2 2 2 2 1 1 1 0 0 0 0 0
7 8 9 7 5 4 4 4 3 3 3 3 3 2 2 2 1 1 2 2 2 2 2 2 1 1 1 1 1 2 2 2 2 2 2 2 1 1 1 0 0 0 0
5 6 6 6 6 5 4 4 3 3 3 3 3 3 3 2 2 1 1 2 2 2 2 2 2 1 2 1 1 1 2 2 2 2 2 2 2 2 1 1 1 0 0
5 5 5 5 5 5 4 4 4 4 3 3 3 3 4 3 3 2 2 1 1 1 1 1 1 1 1 2 1 1 1 2 2 2 2 2 2 2 2 1 1 0 0
5 5 5 5 5 5 4 4 4 4 3 3 3 3 4 4 4 3 2 2 1 1 1 1 1 1 1 2 1 1 1 1 1 1 1 2 2 2 2 1 1 0 0
5 5 5 5 5 5 5 4 4 3 3 3 3 3 4 4 4 3 2 2 2 1 1 1 2 2 2 2 2 1 1 1 1 1 1 1 1 1 1 1 1 1 0
5 5 5 5 6 5 5 4 3 3 3 3 3 3 3 4 4 3 3 2 2 2 1 1 1 1 2 2 2 1 1 1 1 1 1 1 1 1 1 1 1 1 0
6 6 6 6 6 5 4 3 3 3 4 4 4 4 4 4 4 3 3 3 2 2 2 1 1 1 1 1 1 1 1 1 1 1 1 1 1 1 1 1 1 1 1
6 6 7 7 6 5 4 4 4 5 4 4 4 4 4 4 3 3 3 2 2 2 2 2 2 1 1 1 1 1 1 1 1 1 1 1 1 1 1 1 1 1 0
7 8 8 7 6 5 5 6 6 6 5 4 3 4 4 3 3 3 3 2 2 2 2 2 2 1 1 1 1 1 1 1 1 1 1 1 1 1 0 0 0 0 0
8 9 9 7 6 7 7 8 7 6 4 3 3 3 3 3 3 3 2 2 2 2 2 2 1 1 1 1 0 0 1 1 1 1 1 1 1 0 0 0 0 0 0
9 9 9 7 7 8 9 8 6 5 4 3 3 3 3 3 3 3 2 2 2 2 1 1 1 1 1 0 0 0 0 0 0 0 0 0 0 0 0 0 0 0 0
10 11 10 8 8 8 8 7 5 4 4 4 4 3 3 2 2 2 2 2 2 2 1 1 1 0 0 0 0 0 0 0 0 0 0 0 0 0 0 0 0 0 0
10 11 11 10 8 7 6 5 5 5 5 4 3 3 2 2 1 1 1 2 2 1 1 1 0 0 0 0 0 0 0 0 0 0 0 0 0 0 0 0 0 0 0
5 7 9 9 8 6 5 4 4 4 4 4 3 2 1 1 1 1 1 1 1 1 1 0 0 0 0 0 0 0 0 0 0 0 0 0 0 0 0 0 0 0 0
2 3 5 6 5 4 4 3 3 3 3 3 2 1 1 1 1 0 0 0 0 1 1 0 0 0 0 0 0 0 0 0 0 0 0 0 0 0 0 0 0 0 0
1 2 3 3 2 2 2 2 2 2 2 2 1 1 1 1 0 0 0 0 0 0 0 0 0 0 0 0 0 0 0 0 0 0 0 0 0 0 0 0 0 0 0
1 2 2 2 1 1 1 1 1 2 2 1 1 1 1 0 0 0 0 0 0 0 0 0 0 0 0 0 0 0 0 0 0 0 0 0 0 0 0 0 0 0 0
2 2 2 1 1 1 1 0 1 1 1 1 1 0 0 0 0 0 0 0 0 0 0 0 0 1 0 0 0 0 0 0 0 0 0 0 0 0 0 0 0 0 0
3 2 2 1 0 1 1 0 1 1 1 1 0 0 0 0 0 0 0 0 0 0 0 0 0 0 0 0 0 0 0 0 0 0 0 0 0 0 0 0 0 0 0

GEFSMW_con_maxscp_180.txt.gz
SCP
1 1 2 2 2 2 2 2 2 1 1 1 1 1 1 1 1 0 0 0 1 1 1 1 1 1 1 0 0 0 0 0 0 0 0 0 0 0 0 0 0 0 0
1 2 2 2 2 2 2 2 2 2 1 1 1 1 1 1 1 0 0 1 1 1 1 1 1 1 1 1 0 0 0 0 0 0 0 0 0 0 0 0 0 0 0
2 2 2 2 2 2 2 2 2 2 2 2 1 1 1 1 1 1 1 1 1 1 1 1 1 1 1 1 0 0 0 0 0 0 0 0 0 0 0 0 0 0 0
2 2 2 2 2 2 2 2 2 2 3 3 2 2 2 2 1 1 1 1 29 48 29 1 1 1 1 1 1 1 0 0 0 0 0 0 0 0 0 0 0 0 0
3 3 2 2 2 2 2 2 2 3 3 3 3 3 2 2 2 2 1 1 48 94 48 1 1 1 1 1 1 1 1 1 1 1 1 0 0 0 0 0 0 0 0
4 4 3 2 2 2 3 3 3 3 4 4 3 3 3 3 2 2 2 1 29 48 29 1 1 1 1 1 1 1 1 1 1 1 1 1 1 1 1 0 0 0 0
4 4 3 3 3 3 3 3 3 3 4 4 4 3 3 3 3 2 2 1 1 1 1 1 1 1 1 1 1 1 1 1 1 1 2 2 1 1 1 1 1 0 0
4 4 4 4 4 4 4 4 4 4 4 4 4 3 3 3 2 2 1 1 1 1 1 1 1 1 1 1 1 1 1 1 1 1 1 2 2 2 2 1 1 1 1
3 3 4 4 4 4 4 5 5 4 4 4 4 3 2 2 2 2 1 1 1 1 1 1 1 1 1 1 1 1 1 0 0 1 1 1 1 2 2 2 2 1 1
2 3 4 4 4 4 4 5 5 4 4 3 3 3 2 2 2 2 2 2 1 1 1 1 1 1 1 1 1 1 1 1 1 0 0 0 1 1 2 2 2 1 1
3 3 3 4 3 4 4 4 3 3 3 2 2 2 2 2 3 2 2 2 2 1 1 1 1 1 1 1 1 1 1 1 1 1 0 0 0 1 1 1 1 1 1
3 3 3 3 3 3 3 3 2 2 2 2 2 2 3 3 3 3 2 2 2 2 1 1 1 1 1 1 1 2 1 1 1 1 1 1 0 0 1 1 1 1 1
3 3 2 2 3 3 3 2 2 2 2 2 2 2 2 3 3 3 3 2 2 2 2 1 1 1 1 1 1 2 2 1 1 1 1 1 1 0 0 0 1 1 1
3 3 2 2 3 3 3 2 2 2 2 2 2 2 2 2 2 3 3 3 3 2 2 2 1 1 1 1 1 1 1 1 1 1 1 1 1 1 0 0 1 1 1
3 3 3 3 3 3 3 3 2 2 2 2 2 2 2 2 2 2 3 3 3 3 2 2 2 1 1 1 1 1 1 1 1 1 1 1 1 1 1 0 0 1 1
3 3 3 3 3 3 3 3 3 3 3 2 2 2 2 2 2 2 2 2 3 3 2 2 2 1 1 1 1 1 1 1 0 0 0 1 1 1 0 0 0 0 0
3 3 3 3 3 3 3 3 3 3 3 3 2 2 2 2 3 3 2 2 2 2 2 2 2 2 1 1 0 0 0 0 0 0 0 0 0 0 0 0 0 0 0
3 3 3 3 3 4 4 4 3 3 3 3 3 3 3 3 3 3 2 2 2 2 2 2 2 2 1 1 0 0 0 0 0 0 0 0 0 0 0 0 0 0 0
3 3 3 3 4 5 5 5 4 3 3 3 3 3 3 3 3 2 2 2 2 2 2 2 2 2 1 1 0 0 0 0 0 0 0 0 0 0 0 0 0 0 0
2 2 2 3 4 6 7 6 5 4 3 3 3 3 3 2 2 2 2 2 2 2 2 3 2 2 2 1 0 0 0 0 0 0 0 0 0 0 0 0 0 0 0
1 1 1 2 4 6 8 8 7 4 3 3 3 3 2 2 1 1 1 1 1 1 2 2 2 2 2 1 0 0 0 0 0 0 0 0 0 0 0 0 0 0 0
1 1 1 1 2 5 8 9 7 5 3 3 3 2 2 1 1 0 0 0 0 0 1 1 1 1 1 1 0 0 0 0 0 0 0 0 0 0 0 0 0 0 0
1 1 1 1 1 3 6 7 6 5 4 3 2 2 1 1 0 0 0 0 0 0 0 0 0 1 1 1 0 0 0 0 0 0 0 0 0 0 0 0 0 0 0
1 1 1 1 1 2 3 4 4 4 3 2 2 1 1 1 0 0 0 0 0 0 0 0 0 0 1 0 0 0 0 0 0 0 0 0 0 0 0 0 0 0 0
1 1 1 1 0 1 1 2 2 2 2 2 1 1 1 0 0 0 0 0 0 0 0 0 0 0 0 0 0 0 0 0 0 0 0 0 0 0 0 0 0 0 0
1 1 1 1 0 0 0 1 1 1 2 1 1 1 0 0 0 0 0 0 0 0 0 0 0 0 0 0 0 0 0 0 0 0 0 0 0 0 0 0 0 0 0

GEFSMW_con_maxscp_186.txt.gz
SCP
1 2 2 2 3 5 7 5 3 3 2 3 3 2 2 1 1 1 1 1 1 1 1 1 1 1 1 1 1 1 0 0 0 0 0 0 0 1 1 0 0 0 0
2 2 2 3 3 5 6 4 3 3 3 3 3 2 2 1 1 1 1 1 1 1 1 1 1 1 1 1 1 1 1 1 1 1 0 0 0 0 0 0 0 1 1
2 2 3 3 4 4 4 3 3 3 3 3 3 3 2 1 1 1 1 1 1 1 1 1 1 1 1 1 1 1 1 1 1 1 1 1 1 0 0 1 1 1 1
3 3 3 3 4 4 3 3 3 3 3 3 3 2 2 1 1 1 1 2 2 2 2 1 1 1 1 1 1 1 1 1 1 1 1 1 1 1 1 1 1 1 1
4 3 3 3 3 3 3 3 3 3 3 3 2 2 2 2 1 1 2 2 2 2 2 1 1 1 1 1 1 2 2 1 1 1 1 1 1 1 1 1 1 1 1
3 3 3 3 3 3 3 3 3 4 3 3 2 2 2 2 2 2 2 2 2 2 1 1 1 1 1 2 2 2 3 2 2 1 1 1 1 1 1 1 1 1 1
2 2 2 3 3 3 3 3 4 4 4 3 3 3 3 3 3 3 3 2 2 2 1 1 2 2 2 2 2 3 3 3 2 2 1 1 1 1 1 1 1 1 1
2 2 2 2 2 2 3 3 4 4 4 3 3 3 3 3 3 3 3 2 2 2 2 2 2 2 2 2 2 3 3 3 3 2 2 2 2 2 1 1 1 1 1
2 2 2 2 2 2 3 4 4 4 4 4 4 4 4 3 3 3 3 2 2 2 2 2 2 2 2 2 2 2 2 3 3 3 2 2 2 2 2 2 2 2 1
2 2 2 2 3 3 4 4 4 5 5 4 4 4 4 3 3 3 3 3 2 2 2 2 1 2 2 2 2 2 2 2 2 2 2 3 3 3 3 3 3 3 2
2 2 2 3 4 5 5 5 4 5 5 4 4 4 4 3 3 3 3 3 2 2 2 2 2 2 2 2 2 2 2 2 2 2 2 2 2 2 3 3 3 3 3
2 2 2 3 5 5 5 5 4 4 4 4 4 4 3 3 3 3 3 3 2 2 2 2 2 2 2 2 2 2 2 2 2 2 2 2 2 2 2 3 3 3 3
2 2 2 3 4 4 4 4 4 4 3 4 4 3 3 3 3 3 3 2 3 3 3 2 2 2 2 2 2 2 2 2 1 1 2 1 1 1 2 2 2 3 3
2 2 3 4 4 4 4 4 4 4 4 4 4 3 3 3 2 2 2 2 2 3 3 3 2 2 2 3 2 2 2 2 2 1 1 1 1 1 1 2 2 2 2
2 3 4 5 5 5 5 5 5 4 4 4 4 3 3 3 2 2 2 2 2 3 3 3 2 2 2 2 2 2 2 2 2 2 1 1 1 1 1 1 1 2 2
3 3 5 6 6 5 5 5 5 5 4 4 4 4 3 3 3 3 3 3 3 3 3 3 3 2 2 2 2 2 2 2 2 2 2 1 1 1 1 0 1 1 1
3 4 5 6 6 5 5 5 5 5 5 5 4 4 4 3 3 3 3 3 3 3 3 3 3 2 2 1 1 1 2 2 2 2 2 2 1 1 1 1 0 0 0
4 5 6 7 6 6 6 6 6 6 6 6 5 5 4 4 4 4 4 4 4 5 4 4 3 2 2 1 1 1 1 1 1 2 2 2 1 1 1 1 1 1 1
4 5 7 8 8 8 9 8 7 7 7 7 6 5 5 5 5 5 5 5 5 5 4 4 3 2 1 1 1 1 1 1 1 1 1 1 1 1 1 1 1 1 1
4 4 6 9 11 11 11 9 8 7 7 7 6 5 4 4 5 5 5 5 5 4 4 3 3 2 2 1 1 1 1 1 1 2 1 1 0 0 0 0 1 1 1
3 4 5 7 9 9 8 7 6 5 6 6 6 5 4 4 4 5 5 5 5 4 4 3 3 2 2 1 1 1 1 2 2 2 2 1 0 0 0 0 0 1 1
4 4 5 6 6 5 5 4 4 4 5 5 5 5 4 4 4 4 5 5 4 4 3 3 2 2 2 1 1 0 1 1 2 2 2 1 0 0 0 0 0 0 0
4 5 5 5 4 3 3 3 4 5 5 6 6 5 5 4 3 3 3 2 2 2 2 1 1 1 1 1 1 0 0 1 1 2 1 1 0 0 0 0 0 0 0
5 5 4 4 3 3 2 3 4 5 6 7 7 6 5 4 3 2 1 1 1 1 0 1 1 1 1 0 0 0 0 0 1 1 1 0 0 0 0 0 0 0 0
5 4 4 3 3 2 2 2 3 4 5 6 7 6 5 4 3 1 1 1 1 0 0 0 0 0 0 0 0 0 0 0 0 0 0 0 0 0 0 0 0 0 0
5 4 4 3 3 2 2 2 2 3 4 6 6 5 5 4 2 1 0 0 0 0 0 0 0 0 0 0 0 0 0 0 0 0 0 0 0 0 0 0 0 0 0

GEFSMW_con_maxscp_192.txt.gz
SCP
5 5 5 6 8 9 10 10 9 8 7 6 5 6 5 4 3 3 2 2 2 2 2 2 2 2 2 2 2 2 2 2 2 1 1 1 1 1 2 2 2 1 1
6 6 6 7 9 9 10 10 9 8 7 6 6 6 5 4 3 3 3 2 2 2 2 3 2 2 2 2 2 2 2 2 2 1 1 1 1 1 1 2 2 2 2
8 8 8 9 9 9 9 10 10 8 7 6 5 5 5 4 3 3 3 3 3 3 4 4 3 2 2 2 2 2 2 2 2 1 1 1 1 1 1 1 2 2 2
9 9 9 9 9 8 9 9 9 8 7 6 5 5 4 4 3 3 3 4 4 5 6 5 3 2 2 2 2 2 1 1 1 1 1 1 1 1 1 1 1 1 1
10 9 9 8 7 7 8 9 9 8 7 5 5 5 4 4 3 3 3 4 4 5 6 5 4 3 3 2 2 2 2 1 1 1 1 1 1 1 1 1 1 1 1
10 9 8 8 7 7 7 8 8 8 6 5 5 4 4 3 4 4 4 4 5 5 5 4 4 4 4 3 2 2 2 2 1 1 1 1 1 1 1 1 1 1 1
8 8 8 7 6 6 7 8 8 8 7 6 5 5 4 4 4 4 4 4 5 4 4 4 5 5 4 3 2 2 2 2 2 2 2 1 1 1 1 1 1 1 1
6 6 7 7 6 6 7 8 8 8 7 7 6 5 5 4 4 4 4 4 4 4 4 4 5 5 3 2 2 2 2 2 2 2 2 2 2 2 1 1 1 1 1
4 5 6 7 7 7 7 9 9 9 8 7 6 6 6 5 4 4 4 4 4 4 4 4 5 4 3 2 2 2 2 2 2 2 2 2 2 2 2 2 1 1 1
4 5 6 7 8 8 8 9 10 10 8 7 6 6 6 5 8 10 7 4 4 4 4 4 4 4 3 2 2 2 2 2 2 2 2 2 2 2 2 2 2 1 1
4 5 6 8 8 9 9 9 9 9 8 7 7 6 5 5 10 15 9 3 3 4 4 3 3 3 3 2 2 2 2 2 2 2 2 2 2 2 2 2 2 1 1
5 6 7 9 9 9 9 9 9 8 8 7 7 6 5 5 8 10 7 3 3 3 3 3 3 3 3 3 3 3 3 3 3 3 3 2 2 2 2 2 2 1 1
5 6 7 8 9 10 10 9 9 8 8 7 7 6 5 5 5 5 4 4 4 4 3 3 3 3 4 4 4 4 3 3 3 3 3 3 2 2 2 2 1 1 1
4 5 6 8 9 10 10 9 8 8 8 7 7 6 6 5 5 5 4 4 4 4 4 3 3 3 4 4 4 4 4 3 3 3 3 2 2 2 1 1 1 1 1
4 5 7 8 9 9 9 9 9 9 9 8 7 7 6 6 6 5 5 4 4 4 4 4 3 3 3 3 3 4 3 3 3 2 2 2 1 1 1 1 1 1 1
4 5 7 9 9 8 9 10 11 11 10 9 7 7 6 6 6 5 5 4 5 5 5 4 4 3 3 2 2 3 3 3 2 2 2 1 1 1 1 1 1 1 1
4 5 8 11 12 11 11 13 13 12 10 9 8 7 7 7 6 6 5 5 5 5 5 5 5 4 3 2 1 2 3 3 2 2 1 1 1 1 1 1 0 0 0
6 8 11 16 17 15 13 12 11 11 10 9 8 7 7 7 7 6 5 5 6 6 6 6 6 5 3 2 1 2 3 3 2 2 1 1 1 1 1 1 1 1 1
10 14 19 21 19 14 11 9 9 9 9 9 8 7 7 6 6 6 6 6 6 6 6 6 6 5 3 2 1 2 3 3 2 2 2 1 1 1 1 1 1 1 1
14 18 22 21 16 11 9 8 8 8 8 8 8 7 7 6 6 6 6 6 7 7 7 6 5 5 3 2 2 2 3 3 3 3 2 2 1 1 1 1 1 1 1
16 18 18 15 12 9 9 9 9 8 8 8 8 8 7 6 6 6 6 6 7 7 7 6 5 5 4 3 2 2 2 3 3 3 3 2 1 1 0 0 1 1 1
15 14 13 11 10 8 8 10 11 10 9 8 8 7 7 6 6 6 6 6 6 6 5 5 5 5 4 3 2 1 1 2 2 2 2 2 1 0 0 0 0 0 0
10 10 9 9 8 7 7 8 10 9 9 8 7 7 7 6 6 5 6 6 5 4 4 4 3 3 3 2 1 1 0 0 1 1 1 1 1 0 0 0 0 0 0
7 7 8 7 6 6 6 6 6 6 7 7 6 7 7 7 6 6 6 5 4 3 2 2 2 1 1 1 0 0 0 0 0 0 0 0 0 0 0 0 0 0 0
7 7 8 7 6 5 5 5 5 5 5 5 5 6 6 6 7 6 6 5 4 2 1 1 1 1 0 0 0 0 0 0 0 0 0 0 0 0 0 0 0 0 0
8 8 8 7 6 5 5 5 5 4 4 4 5 5 5 6 6 6 5 4 3 2 1 0 0 0 0 0 0 0 0 0 0 0 0 0 0 0 0 0 0 0 0

GEFSMW_con_maxscp_198.txt.gz
SCP
4 4 5 5 5 5 5 5 5 4 4 3 2 2 1 1 1 1 1 1 1 1 1 1 1 1 1 1 1 0 0 0 0 0 0 0 0 0 0 0 0 0 1
5 6 6 6 5 5 5 5 5 4 4 3 2 2 1 1 1 1 1 1 1 1 2 2 1 1 1 1 1 1 1 0 0 0 0 0 0 0 0 0 0 0 0
6 8 8 7 6 5 5 5 5 5 4 3 2 2 1 1 1 1 1 1 1 2 2 2 2 2 1 1 1 1 1 0 0 0 0 0 0 0 0 0 0 0 0
9 10 9 8 7 6 5 5 5 5 4 3 2 2 1 1 1 1 1 1 1 2 2 2 2 1 1 1 1 1 1 0 0 0 0 0 0 0 0 0 0 0 0
10 10 8 8 8 7 6 5 5 5 4 3 2 2 2 2 1 1 1 1 1 2 2 2 1 1 1 1 1 1 0 0 0 0 0 0 0 0 0 0 0 0 0
9 8 7 7 7 6 6 6 6 6 5 4 3 2 2 2 1 1 1 1 1 2 2 1 1 1 1 1 0 0 0 0 0 0 0 0 0 0 0 0 0 0 0
7 6 5 5 5 5 5 6 7 7 6 4 3 3 2 2 2 2 1 1 1 1 1 1 1 1 1 1 0 0 0 0 0 0 0 0 0 0 0 0 0 0 0
6 5 5 4 4 4 5 7 8 7 6 5 4 3 3 2 2 2 1 1 1 1 1 1 1 1 1 1 1 1 0 0 0 0 0 0 0 0 0 0 0 0 0
5 5 5 4 4 4 5 6 7 7 6 6 4 3 3 2 2 2 2 1 1 1 1 1 1 1 1 1 1 1 1 1 1 1 1 0 0 0 0 0 0 0 0
5 5 5 5 5 5 5 5 6 6 5 5 4 3 2 2 2 2 2 1 1 1 1 1 1 1 1 1 1 1 1 1 1 1 1 1 0 0 0 0 0 0 0
5 5 5 5 5 6 5 5 6 5 5 4 3 3 2 2 2 2 2 1 1 1 1 1 1 1 1 1 1 1 1 1 1 1 1 1 1 0 0 0 0 0 0
6 6 6 5 6 7 7 7 6 5 5 5 4 3 3 2 2 2 2 1 1 1 1 1 1 1 2 2 1 1 2 2 2 2 2 1 1 1 0 0 0 0 0
8 7 5 5 6 7 8 8 7 6 6 6 5 4 3 3 2 2 2 2 2 2 1 2 2 2 2 2 2 2 2 2 2 2 2 2 1 1 1 0 0 0 0
9 7 5 4 5 7 8 8 7 7 7 7 7 5 4 4 4 3 3 2 2 2 2 2 2 2 2 2 2 2 2 2 2 2 2 2 2 1 1 1 0 0 0
8 6 5 4 5 6 6 7 7 7 7 8 7 6 5 5 5 4 4 3 3 2 2 2 2 2 2 2 2 2 3 3 2 2 2 2 2 1 1 1 1 0 0
6 5 5 5 6 6 7 9 9 8 8 8 8 7 6 5 5 5 4 4 3 3 2 2 2 2 2 2 2 2 2 2 2 2 2 2 1 1 1 1 1 0 0
6 6 5 6 7 9 12 13 11 9 8 8 7 7 6 5 4 4 4 4 3 3 3 3 3 3 2 2 2 1 1 2 1 1 2 1 1 1 1 1 1 1 1
7 7 6 7 11 15 17 14 10 8 7 7 7 6 5 4 3 3 3 3 3 3 3 3 3 3 2 2 1 1 1 1 1 1 2 2 1 1 1 1 1 1 1
7 7 9 14 18 20 17 12 7 5 5 5 5 6 5 4 3 3 3 2 2 2 3 3 3 2 2 2 1 1 1 2 2 2 2 2 2 1 1 1 1 1 1
7 9 14 19 20 17 12 7 4 3 4 4 4 5 6 4 3 3 3 3 2 2 3 3 3 2 2 1 1 1 1 2 2 2 2 2 2 1 1 1 1 1 1
8 10 13 15 13 10 7 5 4 3 4 4 4 4 4 3 3 3 3 3 3 3 3 3 3 2 2 2 1 1 1 2 2 2 2 2 1 1 1 1 1 1 1
8 8 8 7 6 6 6 5 5 4 4 4 3 3 3 3 3 3 3 3 4 4 4 4 3 2 2 1 1 1 1 1 1 1 1 1 0 0 0 0 0 0 0
6 6 5 4 4 5 6 6 6 6 5 4 3 3 2 3 3 3 3 4 5 5 5 4 3 1 1 1 0 0 0 0 0 0 0 0 0 0 0 0 0 0 0
6 6 5 4 4 5 6 7 7 7 6 5 4 3 3 3 3 3 4 5 5 6 5 4 2 1 0 0 0 0 0 0 0 0 0 0 0 0 0 0 0 0 0
6 5 5 5 5 7 8 8 8 7 7 5 4 4 3 3 3 4 4 5 5 6 5 4 2 1 0 0 0 0 0 0 0 0 0 0 0 0 0 0 0 0 0
5 5 5 5 6 7 8 8 8 8 7 5 4 4 3 4 4 4 5 5 5 5 4 3 2 1 0 0 0 0 0 0 0 0 0 0 0 0 0 0 0 0 0

GEFSMW_con_maxscp_204.txt.gz
SCP
1 1 1 2 2 2 2 2 2 1 1 1 1 1 1 1 1 1 1 1 1 1 1 1 1 1 0 0 0 0 1 1 0 0 0 0 0 0 0 0 0 0 0
1 1 2 2 2 2 2 2 1 1 1 1 1 1 1 1 1 1 1 1 1 1 1 1 1 1 1 1 1 1 1 1 0 0 0 0 0 0 0 0 0 0 0
2 2 3 3 4 4 3 2 1 1 1 1 1 1 1 1 1 1 1 1 1 1 1 1 1 1 1 1 1 1 1 1 0 0 0 0 0 0 0 0 0 0 0
2 3 3 4 4 4 4 3 1 1 1 1 1 1 1 1 1 1 1 1 1 1 1 1 1 1 1 1 1 1 0 0 0 0 0 0 0 0 0 0 0 0 0
3 3 3 3 3 3 2 2 2 1 1 1 1 1 1 1 1 1 1 1 1 1 1 1 1 1 1 0 0 0 0 0 0 0 0 0 0 0 0 0 0 0 0
3 3 3 3 2 2 1 1 2 2 2 2 2 1 1 1 1 1 1 1 1 1 1 1 1 1 1 0 0 0 0 0 0 0 0 0 0 0 0 0 0 0 0
2 3 3 3 3 2 2 2 2 2 3 3 2 2 2 1 1 1 1 1 1 1 1 1 1 1 1 0 0 0 0 0 0 0 0 0 0 0 0 0 0 0 0
2 2 3 3 3 2 2 2 3 3 3 3 2 2 2 2 2 2 2 1 1 1 1 1 1 1 1 1 1 0 0 0 0 0 0 0 0 0 0 0 0 0 0
2 2 2 3 3 3 3 3 4 4 4 3 3 2 2 2 2 2 2 1 1 1 1 1 1 1 1 1 1 1 1 0 0 0 0 0 0 0 0 0 0 0 0
3 2 2 3 3 3 4 4 5 5 4 4 3 3 2 2 2 2 2 1 1 1 1 1 1 1 1 1 1 1 1 1 1 0 0 0 0 0 0 0 0 0 0
3 3 3 3 3 4 4 4 4 5 4 4 3 3 2 2 2 2 2 1 1 1 1 1 1 1 1 1 1 1 1 1 1 0 1 1 1 1 1 0 0 0 0
3 3 3 3 3 3 4 4 4 4 4 4 3 3 2 2 2 2 2 1 1 1 1 1 1 1 2 2 1 1 1 1 1 1 1 1 1 1 1 1 1 0 0
3 3 3 3 3 3 4 4 4 4 4 4 4 3 3 3 2 2 2 2 2 1 1 1 1 1 1 1 1 1 1 1 1 1 1 1 1 1 1 1 1 1 0
3 3 3 3 2 3 3 4 5 5 4 4 4 4 3 3 3 3 2 2 2 2 1 1 1 1 1 1 1 1 1 1 1 1 2 2 2 2 1 1 1 1 1
3 3 3 2 2 2 3 4 4 4 4 4 4 3 3 3 4 4 4 3 3 2 2 2 1 1 1 1 1 1 1 2 2 2 2 2 2 2 1 1 1 1 1
3 3 3 2 2 3 3 4 4 5 4 4 4 4 3 3 4 4 5 5 4 4 3 3 2 2 2 1 1 1 1 2 2 3 3 3 2 2 1 1 1 1 1
3 3 3 3 3 3 4 5 6 5 5 5 4 4 4 4 4 4 5 5 5 5 4 4 3 3 3 2 1 1 1 2 2 2 2 2 2 1 1 1 1 1 1
3 3 3 3 3 3 5 7 8 7 6 5 5 5 4 4 4 4 4 4 5 5 4 4 3 3 3 2 1 1 1 1 2 2 2 1 1 1 1 1 1 1 1
3 3 3 3 4 5 7 9 9 7 6 5 5 5 5 4 4 4 4 4 4 4 4 3 3 2 2 2 1 1 1 1 1 1 1 1 1 1 1 1 1 1 1
3 3 3 4 5 7 9 9 8 7 6 5 5 4 4 4 4 4 4 4 3 3 2 2 1 1 1 1 1 1 1 1 1 1 1 1 1 1 1 1 1 1 1
3 4 4 5 6 7 8 7 6 5 5 4 3 3 3 3 3 3 3 3 2 2 1 1 1 1 1 1 1 1 1 2 2 2 2 1 1 0 0 0 0 1 1
4 5 5 5 5 5 5 5 5 4 3 3 2 2 2 2 3 3 3 2 2 1 1 1 1 1 1 1 1 1 1 1 2 1 1 1 0 0 0 0 0 0 0
5 5 4 4 4 4 4 4 3 3 3 2 2 2 2 2 2 2 2 2 2 2 1 1 1 1 1 1 1 0 0 1 1 1 0 0 0 0 0 0 0 0 0
4 4 4 4 5 5 4 3 3 3 3 3 3 3 2 2 2 2 2 2 2 2 2 2 2 2 1 1 0 0 0 0 0 0 0 0 0 0 0 0 0 0 0
3 4 5 5 5 4 3 3 3 3 4 4 4 3 3 3 3 3 3 3 3 3 2 2 3 3 2 1 0 0 0 0 0 0 0 0 0 0 0 0 0 0 0
3 4 5 5 4 3 2 2 3 3 4 4 4 4 3 3 3 4 4 3 3 3 2 2 3 3 3 1 0 0 0 0 0 0 0 0 0 0 0 0 0 0 0

GEFSMW_con_maxscp_210.txt.gz
SCP
2 2 2 2 2 3 2 3 3 3 3 3 3 4 3 1 2 2 2 1 1 1 1 1 1 1 1 1 1 1 1 1 1 1 1 0 0 0 0 0 0 0 1
2 2 2 3 3 3 2 2 3 3 3 3 3 3 2 1 1 2 2 1 1 1 1 1 1 1 1 1 1 1 1 1 1 1 1 0 0 1 1 0 0 0 1
3 3 3 4 3 3 2 2 2 3 3 2 2 2 2 1 1 1 1 1 1 1 1 1 1 1 1 1 1 1 1 1 1 1 1 1 1 1 1 1 1 1 1
4 4 4 4 4 2 2 2 2 3 2 2 2 2 2 1 1 1 1 1 1 1 1 1 1 1 1 1 1 1 1 1 1 1 1 1 1 1 1 1 1 1 1
4 4 4 3 3 2 2 2 2 2 2 2 2 2 2 2 2 2 2 1 1 1 2 2 1 1 1 1 1 1 1 1 1 1 1 1 1 1 1 1 1 1 1
3 3 2 2 2 2 2 2 3 3 3 3 3 3 2 2 2 2 2 2 2 2 2 2 1 1 1 1 1 1 1 1 1 1 1 1 1 1 1 1 1 1 1
2 2 2 2 2 2 2 3 3 3 3 3 4 3 2 2 2 2 2 2 3 3 3 2 2 1 1 1 2 2 2 2 2 2 1 1 1 1 1 1 1 1 1
2 2 2 2 2 3 3 3 3 3 3 4 4 3 2 2 2 2 2 2 3 3 2 2 2 2 2 2 2 3 3 3 2 2 2 1 1 1 1 1 1 1 0
2 2 2 2 3 3 3 3 3 3 3 4 4 3 2 2 2 3 3 3 2 2 2 1 1 2 2 2 3 3 3 3 2 2 2 2 1 1 1 1 1 1 1
3 3 3 3 3 3 3 3 3 3 3 4 3 3 3 3 4 4 3 3 2 2 2 2 2 2 2 3 4 3 3 2 2 2 1 1 1 2 2 2 2 2 2
4 4 3 3 3 3 3 3 3 3 4 4 4 4 4 5 5 4 3 3 3 3 3 3 2 2 3 3 3 2 2 2 2 1 1 1 2 2 2 2 2 2 2
6 5 5 4 4 4 4 4 3 3 4 4 5 6 6 6 5 3 3 3 3 4 4 4 4 3 3 3 3 2 2 2 2 1 1 1 2 2 2 2 2 2 2
8 7 5 4 5 5 5 4 3 4 4 5 7 7 7 5 4 3 3 3 3 4 5 5 5 4 3 3 2 2 2 2 2 2 2 2 2 2 2 3 2 2 2
8 7 5 5 5 5 4 4 4 4 5 6 7 7 5 4 4 4 3 3 4 4 5 5 5 4 3 2 2 2 2 2 2 2 2 2 2 3 3 3 3 3 2
6 5 5 5 5 5 5 5 5 5 5 5 6 6 5 5 5 4 4 3 4 4 5 5 4 4 3 2 2 2 2 2 2 3 3 3 3 3 3 3 3 3 3
4 4 4 4 5 5 6 5 5 5 6 6 6 6 6 5 5 5 4 4 4 4 5 5 4 4 3 2 2 2 2 2 3 3 3 3 3 3 2 2 2 2 2
5 6 5 5 5 5 5 5 6 7 7 8 7 7 6 6 6 5 5 5 5 5 5 4 4 4 3 2 2 2 2 2 3 3 3 3 2 2 2 2 1 1 1
6 7 6 5 5 5 5 6 7 9 9 9 8 7 7 6 6 6 6 6 6 5 4 4 4 4 3 2 1 1 2 2 2 3 3 3 2 1 1 1 1 1 1
5 6 7 6 6 6 6 7 9 9 9 8 8 7 7 6 6 7 8 8 7 6 5 5 4 4 3 2 1 1 2 2 2 3 3 2 1 1 1 1 1 1 1
4 5 6 7 8 8 8 8 9 8 8 7 7 7 7 7 7 8 9 9 7 7 6 6 5 4 3 2 2 1 2 2 3 3 3 2 1 1 1 1 1 1 1
5 5 6 8 9 10 9 9 8 7 6 6 7 8 7 7 7 8 9 8 7 6 6 6 5 4 4 3 2 1 1 2 3 3 3 2 1 1 0 1 1 1 1
5 6 7 9 10 10 10 9 8 7 6 7 8 8 8 7 7 7 8 7 6 5 5 5 5 4 4 3 2 1 1 2 3 3 2 1 1 0 0 0 0 0 0
6 6 7 8 9 9 9 9 8 7 8 9 10 10 9 8 7 7 7 6 5 4 3 3 4 4 3 3 2 1 1 1 2 2 1 1 0 0 0 0 0 0 0
6 6 7 7 7 7 8 8 8 8 10 11 11 10 9 8 7 6 5 5 4 3 2 3 3 3 3 3 3 2 2 1 1 1 1 0 0 0 0 0 0 0 0
7 6 6 6 6 6 7 7 8 8 9 9 8 7 6 6 5 5 4 4 3 2 2 2 3 3 4 4 4 3 2 2 1 0 0 0 0 0 0 0 0 0 0
7 7 6 6 6 6 6 7 7 7 7 6 5 4 4 4 5 4 4 3 3 2 2 2 3 4 4 4 3 2 2 1 1 0 0 0 0 0 0 0 0 0 0

GEFSMW_con_maxscp_216.txt.gz
SCP
6 5 5 7 7 6 5 4 3 3 4 4 4 4 3 2 2 2 3 2 2 2 2 2 2 2 2 1 1 1 1 1 1 1 1 1 1 1 1 1 1 1 1
6 6 6 8 7 5 4 4 3 3 3 4 4 4 3 2 2 2 3 2 2 2 2 3 3 2 2 1 1 1 1 1 1 1 1 1 1 1 1 1 1 1 1
7 7 9 9 7 4 4 3 4 3 3 3 3 3 3 3 2 2 3 3 3 3 3 3 3 3 2 1 1 2 2 1 1 1 1 1 1 1 1 1 1 1 1
9 9 10 9 6 4 3 4 5 5 4 4 4 3 3 3 3 3 3 3 3 3 3 3 4 3 2 1 1 2 2 1 1 1 1 1 1 1 1 1 1 1 1
9 8 8 7 5 4 4 5 6 6 5 5 4 4 4 4 3 3 3 3 3 3 3 3 4 4 3 2 2 2 2 2 2 1 1 1 1 1 1 1 1 1 1
6 6 6 5 5 4 4 6 7 7 7 6 6 5 5 5 4 3 3 3 3 3 3 3 4 4 4 3 3 3 3 2 2 2 1 1 1 1 1 1 1 1 1
4 4 5 5 5 4 5 7 8 8 8 7 7 6 5 5 4 3 3 3 3 3 4 5 5 6 5 5 4 4 3 3 2 2 1 1 1 1 1 1 1 1 1
3 3 4 4 4 5 6 8 10 10 9 8 8 7 5 4 4 3 3 3 3 3 5 7 8 8 7 6 6 5 4 3 2 2 1 1 1 1 1 1 1 1 1
3 4 4 4 4 5 6 8 10 11 10 9 8 7 6 5 4 4 4 4 3 3 5 7 8 8 7 6 6 6 5 4 3 2 2 2 1 1 1 1 1 1 1
5 6 7 7 7 6 6 7 9 11 10 8 7 6 6 6 5 4 4 4 4 4 5 7 8 8 7 6 5 5 5 4 3 3 2 2 1 1 1 2 2 2 1
8 8 8 9 9 8 7 7 7 8 8 8 7 7 7 7 6 5 5 4 5 5 6 8 9 8 7 5 5 4 4 4 3 3 2 2 2 2 2 2 2 2 2
8 7 8 9 9 8 8 8 7 7 8 9 9 8 8 7 6 5 5 6 6 6 7 8 8 8 7 6 5 4 4 3 3 2 2 2 2 2 2 2 2 2 2
7 7 8 8 8 8 9 8 7 7 8 9 9 8 7 6 5 5 6 7 8 7 7 7 7 6 6 6 5 4 3 3 3 2 2 3 2 2 2 2 3 3 3
7 7 8 8 8 8 9 8 7 7 7 8 8 7 6 6 6 6 7 7 7 7 7 6 6 5 5 5 5 4 4 3 2 2 2 3 3 2 2 3 4 4 3
7 7 8 8 8 8 8 8 7 7 7 7 7 7 7 6 7 7 7 7 7 7 7 6 5 5 4 4 4 4 4 3 2 2 3 4 4 3 3 3 4 4 4
8 8 7 7 8 8 8 8 8 8 8 8 8 8 8 8 8 7 7 7 7 8 8 7 5 4 3 3 3 4 3 3 3 4 4 4 4 3 3 3 2 2 2
9 8 7 7 8 8 9 9 10 10 9 8 8 9 10 9 8 8 8 8 8 9 9 7 6 4 3 3 3 3 4 4 4 4 4 4 3 2 2 2 1 1 1
7 7 6 7 9 9 9 10 11 10 9 9 8 9 10 10 9 8 9 9 9 10 10 8 6 5 4 3 3 4 4 4 4 4 4 3 3 2 1 1 1 1 1
6 6 6 7 9 10 10 10 10 10 9 9 9 9 10 10 10 9 10 10 10 11 11 9 7 6 5 3 3 3 4 4 4 3 3 3 3 2 1 1 1 1 1
7 7 7 8 10 11 11 10 10 10 10 10 10 9 10 10 9 10 10 11 10 11 11 10 8 7 5 4 2 2 3 4 4 3 2 2 2 2 1 1 1 1 1
8 8 8 10 11 11 11 11 11 12 12 11 10 10 10 9 9 10 11 11 10 10 11 11 9 7 5 3 2 1 2 4 4 3 2 2 2 1 1 1 1 1 1
8 8 9 11 12 11 11 12 14 15 14 12 11 10 10 9 9 9 10 10 10 11 11 10 8 6 5 4 2 1 1 2 3 3 2 2 1 1 1 1 1 1 1
9 9 9 11 11 11 12 13 15 16 15 12 11 10 9 8 7 8 9 10 10 10 9 7 6 5 5 4 3 1 1 1 2 2 2 1 1 0 0 0 0 0 0
10 10 9 10 11 12 14 15 15 15 13 11 9 8 7 5 5 6 8 8 8 7 6 5 4 4 4 4 4 3 2 1 1 1 1 0 0 0 0 0 0 0 0
10 10 9 9 11 13 14 14 14 13 11 8 7 5 4 3 4 5 5 5 4 4 4 3 3 3 3 3 4 4 3 2 1 1 0 0 0 0 0 0 0 0 0
10 9 8 10 11 12 12 11 12 12 10 7 5 4 3 3 3 4 3 2 2 2 2 2 2 2 2 2 3 3 3 2 1 1 0 0 0 0 0 0 0 0 0

GEFSMW_con_maxscp_222.txt.gz
SCP
5 5 5 4 3 3 2 2 2 2 1 1 1 1 1 1 1 1 1 1 1 1 1 1 1 1 1 1 0 0 0 0 0 0 0 0 0 0 0 0 0 0 0
6 6 5 4 3 3 2 2 2 2 1 1 1 1 1 1 1 1 1 1 1 1 1 1 1 1 1 1 1 0 0 0 0 0 0 0 0 0 0 0 0 0 0
8 8 6 5 4 3 2 2 2 2 1 1 1 1 1 1 1 1 1 1 1 2 2 2 2 1 1 1 1 0 0 0 0 0 0 0 0 0 0 0 0 0 0
10 8 6 5 4 3 2 2 2 2 2 1 1 2 2 1 1 1 1 1 1 2 2 2 2 2 2 2 1 1 0 0 0 0 0 0 0 0 0 0 0 0 0
9 7 5 4 4 3 3 2 2 2 2 1 1 2 2 2 1 1 1 1 1 1 2 3 3 3 3 2 2 1 1 0 0 0 0 0 0 0 0 0 0 0 0
8 6 4 3 3 3 3 2 2 2 2 2 2 2 1 1 1 1 1 1 1 1 2 2 3 4 4 4 3 2 1 1 0 0 0 0 0 0 0 0 0 0 0
6 5 4 4 4 4 4 3 3 2 2 2 2 2 2 2 2 2 2 1 1 1 1 2 2 3 4 4 4 3 2 1 1 1 1 0 0 0 0 0 0 0 0
5 5 5 5 5 4 4 3 3 3 3 3 3 2 2 2 2 2 2 2 2 1 1 2 2 2 3 4 4 3 2 1 1 1 1 1 0 0 0 0 0 0 0
4 4 5 5 5 4 3 4 3 3 3 3 3 3 3 2 3 3 3 3 2 2 2 2 2 2 2 3 3 3 2 1 1 1 1 1 1 1 0 0 0 0 0
4 4 4 5 4 3 3 4 4 4 4 3 3 3 3 3 3 3 4 3 3 3 3 2 2 2 2 2 2 3 2 2 1 1 1 1 1 1 0 0 0 0 0
4 4 4 4 4 3 3 4 5 4 4 4 3 3 3 3 3 3 4 4 4 4 4 4 3 2 2 2 2 3 2 2 1 1 1 1 1 1 1 1 0 0 0
5 5 4 4 4 4 4 4 5 5 5 4 4 3 3 3 3 3 4 4 4 5 5 4 3 2 2 2 2 2 2 2 1 1 1 0 0 1 1 1 1 1 1
6 6 5 5 5 5 4 4 4 5 5 5 4 4 3 3 3 4 3 3 3 4 4 4 3 2 2 2 2 2 2 2 1 1 1 0 1 1 1 1 1 1 1
7 6 5 5 5 4 4 4 4 5 6 6 5 4 3 3 3 4 4 3 2 2 2 2 2 2 2 2 2 2 2 1 1 1 1 1 1 1 1 1 1 1 2
6 5 5 4 4 4 4 4 4 5 6 6 5 5 4 3 3 3 4 3 2 2 2 2 2 2 2 2 2 2 1 1 1 1 1 1 1 1 1 1 1 2 2
5 5 4 4 4 4 4 4 5 5 5 6 6 5 5 4 4 3 4 4 4 3 3 3 4 3 2 2 2 2 2 2 1 1 1 1 1 1 1 1 2 2 2
5 5 5 5 5 5 5 5 6 6 6 6 6 6 5 5 4 4 3 4 5 4 4 4 5 4 3 2 2 2 2 2 2 2 2 1 1 1 2 2 2 2 2
5 5 5 5 6 7 7 7 8 8 7 6 5 5 5 4 4 4 3 4 5 5 5 5 5 5 4 3 3 2 3 3 3 3 2 2 2 2 2 1 1 1 1
6 6 6 6 7 8 9 9 10 9 8 7 6 5 5 4 4 4 3 4 4 5 6 6 5 5 5 4 3 3 4 5 4 4 3 3 3 2 1 1 1 1 1
8 7 7 8 8 9 10 11 10 9 9 8 7 6 5 4 4 4 4 4 5 6 6 5 4 4 5 5 3 3 4 5 5 4 4 3 2 2 1 1 1 1 1
8 8 8 9 8 9 11 11 11 10 10 10 8 7 6 5 4 4 5 5 5 5 5 4 3 4 5 4 3 2 4 5 5 4 3 3 2 1 1 1 1 1 1
7 8 9 9 10 10 11 12 12 12 12 11 10 9 7 4 4 4 4 5 5 5 4 3 2 3 3 3 2 1 2 3 4 3 3 2 2 1 1 1 1 1 1
7 9 11 12 12 12 12 13 13 13 13 12 12 10 6 3 3 3 4 5 5 5 4 2 2 2 2 2 2 1 1 1 2 2 2 1 1 1 1 1 0 0 0
10 13 16 17 16 14 12 13 13 12 12 12 12 9 5 2 2 3 4 5 5 5 4 3 2 2 2 2 2 2 1 1 1 1 1 0 0 0 0 0 0 0 0
17 20 23 24 21 17 14 12 11 11 11 12 10 7 3 2 2 2 3 4 4 4 3 2 2 2 2 2 2 2 1 1 0 0 0 0 0 0 0 0 0 0 0
23 26 28 28 24 19 14 10 9 10 12 12 9 5 3 2 1 1 1 2 3 3 2 2 2 2 2 2 2 1 1 1 0 0 0 0 0 0 0 0 0 0 0

GEFSMW_con_maxscp_228.txt.gz
SCP
2 3 3 2 1 1 1 1 1 1 1 1 1 1 0 0 0 0 1 1 1 1 1 1 1 1 0 0 0 0 0 0 0 0 0 0 0 0 0 0 0 0 0
3 3 3 2 2 1 1 1 1 1 1 1 1 1 1 1 0 1 1 1 1 1 1 1 1 1 1 0 0 0 0 0 0 0 0 0 0 0 0 0 0 0 0
4 4 4 3 2 2 1 1 1 1 1 1 1 1 1 1 1 1 1 1 1 1 1 1 2 1 1 1 0 0 0 0 0 0 0 0 0 0 0 0 0 0 0
4 4 4 3 2 2 1 1 1 1 1 1 1 1 1 1 1 1 1 1 1 1 1 2 2 2 2 1 1 1 0 0 0 0 0 0 0 0 0 0 0 0 0
4 4 3 2 2 2 1 1 1 1 1 1 1 1 1 1 1 1 1 1 1 1 1 2 2 2 2 2 2 1 1 0 0 0 0 0 0 0 0 0 0 0 0
4 4 3 2 2 2 1 1 1 1 1 1 1 1 1 1 1 1 1 1 1 1 1 2 2 2 2 2 2 2 1 1 0 0 0 0 0 0 0 0 0 0 0
4 3 2 2 2 2 1 1 1 1 1 1 1 1 1 1 1 1 1 1 1 2 2 2 2 2 2 2 2 2 2 1 1 0 1 1 1 1 0 0 0 0 0
3 3 2 2 2 2 1 1 1 1 1 1 1 1 1 1 1 1 1 2 2 2 2 2 2 2 2 2 2 2 2 1 1 1 1 1 1 1 1 0 0 0 0
2 2 2 2 2 2 2 1 1 1 2 2 1 1 1 1 1 2 2 2 2 2 2 2 3 3 3 2 2 2 2 1 1 1 1 1 1 1 1 1 0 0 0
2 2 2 3 3 3 2 2 2 2 2 2 2 2 2 1 1 2 2 2 2 1 1 2 3 4 4 3 2 2 1 1 1 1 1 1 1 1 1 1 0 0 0
1 2 2 2 3 3 3 3 3 2 2 3 2 2 2 2 2 2 2 2 1 1 1 2 3 4 4 4 3 2 1 1 1 1 1 1 1 0 1 1 0 0 0
2 2 2 2 2 3 3 3 3 3 3 3 3 2 2 2 2 2 2 1 1 1 1 2 2 2 3 3 2 2 2 1 1 1 1 1 1 1 1 1 0 0 0
3 2 2 2 3 3 3 3 2 3 3 3 3 2 2 2 2 2 2 2 2 2 2 2 2 2 2 2 2 2 1 1 1 1 1 1 1 1 1 1 1 1 1
3 3 2 3 3 4 4 3 2 3 3 3 3 2 2 2 2 2 2 2 2 2 2 2 2 2 2 2 2 2 1 1 1 1 1 1 1 1 1 1 1 1 1
3 2 2 3 3 5 5 4 3 3 3 3 3 3 2 2 2 2 2 2 2 2 2 2 2 3 2 2 2 2 2 1 1 1 1 1 1 1 1 1 1 1 1
2 2 2 3 3 5 6 5 4 4 4 3 3 3 3 2 2 2 2 2 2 2 2 2 2 3 2 2 2 2 2 2 2 1 1 2 2 2 1 1 1 1 1
2 2 3 3 3 5 6 6 5 5 5 4 3 3 3 3 2 2 2 2 3 3 3 3 3 3 2 2 2 2 2 2 2 2 2 2 2 2 2 2 1 1 1
2 3 3 3 3 5 6 6 6 5 5 4 3 3 3 3 2 2 2 2 3 3 3 4 3 3 2 2 1 1 2 3 3 3 3 3 3 3 3 2 2 1 1
3 3 3 3 3 4 6 6 6 6 5 4 4 3 3 3 2 2 2 2 2 2 3 4 4 3 2 2 1 1 2 2 3 3 4 4 4 4 3 2 2 2 2
3 3 3 3 3 3 4 5 6 7 6 5 5 4 3 3 3 3 2 2 2 2 3 4 3 2 2 1 1 1 2 2 2 3 3 4 4 3 2 2 2 2 2
4 4 4 3 3 3 4 5 6 7 7 7 6 5 5 4 3 3 3 2 2 2 3 3 3 2 2 1 1 1 2 2 2 2 3 3 3 2 1 2 2 2 2
4 4 4 4 3 4 5 5 6 7 8 8 8 7 6 5 4 3 2 2 2 3 3 3 2 2 1 1 1 1 1 1 1 2 2 2 2 1 0 1 1 2 1
5 4 4 5 4 4 4 5 5 6 8 9 9 8 7 6 5 4 3 1 2 3 3 2 1 1 1 1 1 1 1 1 1 1 1 2 1 1 0 0 0 1 0
5 4 4 5 5 4 4 4 5 6 8 9 9 9 8 7 6 4 3 2 2 3 3 2 1 1 1 1 2 1 1 1 1 1 1 1 0 0 0 0 0 0 0
5 4 5 5 5 5 4 4 5 7 9 9 8 8 8 8 7 5 3 1 1 2 3 2 1 1 1 1 1 1 1 1 1 1 1 1 0 0 0 0 0 0 0
5 5 5 5 5 4 4 5 6 7 9 9 8 7 7 7 7 5 2 1 1 2 2 1 1 1 1 1 1 0 1 1 1 1 1 1 1 0 0 0 0 0 0

GEFSMW_con_maxscp_234.txt.gz
SCP
3 3 3 3 2 2 1 2 2 2 2 2 2 1 1 1 1 1 1 1 1 1 1 1 1 1 1 1 1 1 1 1 1 1 1 1 1 1 1 1 1 1 1
3 3 3 3 2 2 1 2 2 2 2 2 2 1 1 1 1 1 1 1 1 1 1 1 1 1 1 1 1 1 1 1 1 1 1 1 1 1 1 1 1 1 1
4 4 3 3 3 2 2 1 2 2 2 1 1 1 1 1 1 1 1 1 1 1 2 2 1 2 2 1 1 1 2 2 2 1 1 1 1 1 1 1 1 1 1
4 4 4 3 3 2 1 1 2 2 2 1 1 1 1 1 1 1 1 1 1 2 2 2 2 2 2 2 2 2 3 3 3 2 1 1 1 1 1 1 1 1 1
4 4 4 3 3 2 1 1 2 2 2 2 2 2 1 1 1 2 2 1 2 2 2 2 2 2 2 2 2 2 3 3 3 2 2 1 1 1 1 1 1 1 1
3 3 3 3 2 2 1 1 2 2 2 2 2 2 2 2 2 2 2 2 2 2 3 3 3 3 4 4 4 4 4 3 3 3 2 2 1 1 1 1 1 1 2
3 3 2 2 2 2 2 2 2 2 2 2 2 2 2 2 2 2 2 2 2 3 3 3 4 5 5 5 5 5 4 4 3 2 2 2 2 2 2 2 2 2 2
3 2 2 2 2 2 2 2 3 2 2 2 2 2 2 2 2 2 2 2 3 3 3 3 4 5 5 5 5 4 4 4 3 3 2 2 2 2 3 2 2 2 2
2 2 2 2 2 2 3 3 4 5 5 4 3 3 3 2 2 2 2 3 3 3 3 3 3 3 3 3 3 3 3 3 3 3 2 2 2 3 2 2 2 2 2
2 2 2 3 3 4 4 5 6 7 7 6 5 4 3 3 3 3 3 3 3 2 2 2 2 2 2 2 2 2 2 2 2 2 2 2 2 2 2 2 2 2 2
2 2 3 3 4 6 7 7 7 6 6 6 5 4 4 4 3 3 3 3 2 2 2 2 2 2 1 1 1 1 1 1 1 1 2 2 2 2 2 1 1 1 1
2 2 3 3 5 6 7 8 7 6 5 4 4 4 4 4 3 3 3 3 3 2 2 2 2 1 1 1 1 1 1 1 1 1 2 2 2 2 2 1 1 1 2
2 3 3 3 4 5 7 8 9 7 5 4 3 3 3 3 3 3 3 3 3 3 2 2 2 1 1 1 1 1 1 1 1 2 2 3 3 2 2 2 2 2 2
4 4 4 4 4 5 6 7 8 8 6 4 3 3 3 3 3 3 3 3 3 3 2 2 1 1 1 2 2 2 2 2 2 3 3 3 3 2 2 2 2 2 3
5 7 6 5 4 4 4 5 6 7 6 5 5 5 5 4 4 3 3 3 3 3 2 2 1 1 1 2 3 3 3 3 4 4 4 3 3 2 2 2 2 3 3
5 7 8 7 5 4 4 4 5 6 6 6 7 7 6 5 4 4 3 3 3 3 3 2 2 2 2 2 3 4 4 4 5 5 5 4 3 2 2 2 2 2 3
3 5 7 7 5 4 4 4 4 5 7 8 9 8 6 5 4 4 3 4 4 4 4 3 3 2 2 2 2 3 4 5 5 6 6 5 4 4 4 4 3 3 3
4 4 5 5 5 5 4 4 4 6 8 10 11 10 9 7 5 4 4 4 4 4 4 4 3 3 3 2 1 2 3 4 5 5 6 5 5 5 6 6 5 5 5
5 4 4 5 5 5 4 4 5 7 10 12 12 11 10 9 6 5 4 4 4 4 4 4 4 4 3 2 1 2 3 4 4 4 5 5 5 5 6 6 7 6 6
5 5 5 6 6 5 5 5 5 7 9 12 12 11 10 9 8 6 5 5 5 5 5 5 5 4 4 3 1 2 4 4 4 4 4 4 3 3 4 5 6 6 6
5 6 7 8 8 7 5 5 5 6 7 9 10 9 9 10 9 7 6 6 6 6 6 6 5 5 4 3 2 2 3 3 3 3 3 3 2 1 2 3 4 4 3
6 7 9 10 10 8 6 5 5 6 6 7 8 9 10 10 9 8 7 7 6 6 6 5 4 4 3 2 1 1 2 2 2 3 2 2 1 0 0 1 1 1 1
7 9 11 12 11 9 7 6 6 6 6 7 7 8 9 10 9 9 8 7 6 5 5 4 4 4 3 2 1 1 1 1 1 1 2 1 0 0 0 0 0 0 1
7 9 11 12 11 9 7 6 6 6 7 7 7 8 8 10 11 10 9 8 7 5 4 4 4 5 4 2 1 1 1 0 1 1 1 1 0 0 0 0 0 1 1
7 9 11 11 10 8 7 6 6 7 7 8 8 8 8 10 11 11 10 8 7 5 4 4 5 5 4 2 1 1 1 1 1 1 1 1 1 1 1 1 1 1 1
7 9 11 11 10 8 6 5 6 7 8 8 8 8 8 9 11 11 10 8 6 5 3 4 4 4 3 2 1 1 1 1 1 1 1 1 1 1 1 1 1 1 1

GEFSMW_con_maxscp_240.txt.gz
SCP
9 6 4 3 3 5 6 5 4 3 3 3 3 2 2 2 2 3 4 5 6 7 6 4 2 2 1 2 2 2 1 1 1 1 1 1 1 1 1 2 2 1 1
11 8 4 3 3 4 5 5 4 4 4 3 3 3 3 3 3 3 4 4 6 7 7 5 3 2 1 2 2 2 1 1 1 1 1 1 1 1 1 1 2 2 2
12 10 6 3 3 3 4 5 5 5 5 4 4 4 4 3 3 3 4 5 5 6 7 6 4 3 3 3 2 2 2 1 1 1 1 1 1 1 1 1 2 2 2
11 10 7 4 3 3 4 5 6 6 5 5 5 4 4 3 3 3 4 5 5 5 6 6 4 4 4 4 3 3 2 2 1 1 1 1 1 1 1 1 2 2 2
9 10 9 6 4 4 4 6 8 7 6 5 5 4 4 3 3 3 4 5 5 4 5 6 5 4 4 4 3 3 3 2 2 1 2 2 1 1 1 1 2 2 2
8 10 10 8 5 3 4 6 7 7 6 5 5 4 4 3 3 4 4 5 4 4 5 5 4 4 3 3 2 2 2 2 2 2 2 2 2 1 1 1 1 1 2
8 10 11 8 5 3 4 5 7 7 6 5 5 5 4 4 4 5 5 6 5 5 5 4 4 3 3 2 2 2 2 2 2 2 2 2 2 2 1 1 1 1 1
8 9 10 7 5 4 4 6 8 8 7 6 5 5 5 5 5 6 6 6 6 6 5 5 4 3 3 2 2 3 3 3 3 2 2 2 2 2 2 1 1 1 1
8 8 8 6 5 5 5 7 10 12 10 8 6 6 6 6 6 6 6 5 5 5 5 4 4 4 3 3 3 3 3 3 3 2 2 2 2 2 2 2 2 1 1
8 7 6 5 5 6 6 9 14 16 13 10 8 7 7 6 6 6 5 5 5 5 5 4 4 4 4 4 4 3 3 3 2 2 2 2 2 2 2 2 2 2 1
7 6 5 5 5 6 8 12 16 18 15 11 10 10 9 8 7 7 6 5 5 6 5 5 5 5 5 4 4 3 3 2 2 2 2 2 2 2 2 2 2 2 2
5 5 4 4 6 7 9 12 16 17 15 12 11 12 11 10 9 8 7 6 6 5 6 6 5 5 4 4 4 3 2 2 2 2 2 2 2 3 3 3 2 2 2
6 6 5 6 6 7 8 10 13 15 15 12 11 12 12 10 8 7 7 6 6 6 6 6 6 5 4 4 3 3 3 2 2 2 3 3 4 4 3 3 3 3 2
7 8 8 8 8 8 8 9 10 13 14 12 10 10 10 9 8 7 6 6 6 6 7 6 5 5 4 4 4 4 3 3 3 3 3 4 4 4 4 3 3 3 3
7 7 8 9 10 9 9 9 9 11 14 12 9 8 8 8 7 7 6 6 7 7 7 5 5 5 5 5 4 4 4 3 3 3 3 3 3 3 3 3 3 3 3
6 6 7 9 9 9 9 8 9 11 13 12 9 8 7 7 8 7 6 7 8 8 6 5 5 5 5 4 3 3 3 4 4 4 3 3 3 3 3 3 2 2 3
7 7 6 7 8 9 8 8 9 11 12 11 10 9 8 7 8 8 7 7 8 7 6 5 5 5 5 3 2 2 3 4 4 4 4 3 3 3 3 2 1 1 1
10 9 7 6 7 9 8 8 9 9 10 10 11 11 10 8 8 8 7 7 7 7 6 5 6 6 5 3 2 2 3 4 5 5 4 4 4 3 2 2 1 1 1
13 11 8 7 8 9 9 8 9 9 9 10 12 13 12 9 8 8 8 7 7 6 6 6 6 6 5 4 3 2 3 4 4 4 4 4 3 2 1 2 2 2 2
15 13 10 8 8 9 9 8 9 9 9 10 12 14 13 11 9 8 8 7 7 7 7 7 6 6 6 5 3 2 3 4 4 4 3 3 2 1 1 1 2 2 2
15 14 11 10 10 10 9 8 9 10 10 10 12 14 13 11 9 9 9 9 9 9 9 8 7 7 7 5 3 2 3 4 4 3 3 2 1 0 1 1 1 2 2
14 12 12 13 14 13 11 9 9 10 11 10 10 11 11 9 8 8 10 11 11 11 11 10 8 8 7 5 3 2 2 3 3 2 2 1 0 0 0 0 1 1 1
11 11 12 15 17 16 13 11 12 13 12 10 9 9 8 7 6 7 9 11 12 12 11 10 9 8 6 4 3 1 1 1 1 1 1 1 0 0 0 0 0 1 1
11 11 12 17 20 19 16 14 15 15 13 11 10 9 7 6 6 7 9 11 12 12 11 11 10 8 6 4 2 1 1 1 1 1 1 0 0 0 0 0 1 1 1
12 11 12 16 21 21 19 18 18 16 13 12 11 9 7 6 6 7 9 11 12 12 11 11 10 8 6 4 2 1 1 1 1 1 1 1 1 1 1 1 2 2 2
12 10 11 16 21 23 21 20 19 17 14 12 11 9 7 6 7 7 9 11 12 11 10 10 10 8 6 3 2 1 2 1 1 1 1 2 2 1 1 1 2 2 2

GEFSMW_con_maxscp_246.txt.gz
SCP
15 17 20 25 30 34 39 43 41 35 29 25 22 20 18 15 13 10 8 6 4 3 3 4 6 8 11 13 14 14 13 13 13 14 14 12 10 8 10 12 12 10 8
11 14 19 23 27 29 32 36 36 31 28 25 23 21 18 15 12 10 7 5 4 4 4 6 7 9 12 14 14 13 12 13 13 15 15 13 9 5 6 9 8 6 4
8 10 16 20 22 23 25 29 30 29 27 26 24 22 18 13 10 8 7 5 4 5 6 7 9 12 16 16 13 11 11 12 13 16 16 14 10 5 3 4 3 2 1
7 8 12 16 18 19 21 25 28 27 25 23 21 18 16 12 10 8 7 6 5 5 6 8 12 17 21 18 14 11 11 12 13 13 12 10 9 7 3 2 2 1 1
7 7 8 11 14 16 18 20 23 22 20 18 17 16 15 14 12 10 9 7 6 7 9 12 18 25 25 19 15 13 12 11 9 7 5 3 4 5 3 2 2 2 1
7 7 7 8 10 12 14 15 15 14 14 15 17 18 19 18 17 14 12 9 9 11 15 20 27 30 25 18 14 12 10 6 4 2 1 1 1 2 2 2 2 1 1
6 6 7 6 6 8 9 9 8 8 11 16 20 23 24 23 21 19 15 12 11 15 22 28 31 27 20 14 11 9 7 3 1 1 1 1 1 2 2 2 1 0 1
6 6 6 6 5 6 7 8 6 7 12 19 22 26 29 29 26 24 20 16 15 19 26 31 28 21 14 11 9 7 4 2 1 1 1 1 1 1 2 2 1 0 0
5 5 6 5 5 6 8 9 9 10 16 22 26 28 31 33 33 31 28 24 22 25 31 31 25 16 10 8 6 4 2 1 1 1 1 1 1 1 1 1 1 1 0
5 5 6 5 5 6 8 10 11 14 20 27 31 33 34 36 36 37 36 32 30 35 38 33 23 13 8 6 4 2 2 1 1 1 1 1 1 1 1 1 1 1 1
6 6 6 6 6 7 7 8 12 18 26 35 40 42 41 40 40 40 41 38 36 41 43 34 22 13 8 5 3 3 2 2 2 1 1 1 1 1 1 1 1 1 1
8 8 8 6 6 6 6 7 10 18 30 41 48 50 49 46 45 46 46 43 39 40 40 30 19 12 8 5 4 4 4 3 2 2 2 1 1 1 1 1 1 1 1
10 9 7 6 6 5 5 5 8 14 26 40 49 53 52 50 50 51 51 48 43 40 33 22 14 10 7 5 5 5 4 3 2 1 2 2 1 1 1 1 1 1 1
10 8 7 6 5 6 6 5 6 10 18 30 42 50 53 54 55 56 55 52 48 41 28 16 10 7 6 6 5 4 4 2 1 1 1 1 1 2 2 2 1 1 1
8 7 6 6 6 6 6 6 7 8 14 24 36 46 54 58 61 62 61 58 52 39 23 12 7 5 5 5 4 3 2 2 1 1 1 1 1 2 2 1 1 1 1
6 6 5 5 5 5 6 8 12 15 20 28 39 51 61 67 70 71 72 66 51 32 17 9 5 4 4 3 2 2 2 1 1 1 1 1 1 2 2 1 1 1 1
5 5 5 6 8 10 15 21 28 33 37 44 55 69 78 83 84 86 86 70 43 22 12 8 5 4 2 2 2 2 2 2 1 1 1 1 1 1 2 1 1 1 1
5 5 7 11 17 24 34 43 50 56 61 67 79 94 102 105 109 111 98 66 34 17 11 8 6 4 3 2 2 2 2 2 2 1 1 1 1 1 1 1 1 0 0
13 16 23 32 39 44 51 60 67 72 77 82 96 111 117 122 130 124 94 56 31 21 18 13 8 4 3 2 2 2 2 3 2 1 1 1 1 1 1 0 0 0 0
46 51 58 63 66 66 67 74 80 81 82 86 98 110 114 119 122 102 68 42 30 27 26 20 10 5 4 3 2 2 2 3 2 1 1 1 1 0 0 0 0 0 0
87 85 82 80 81 82 87 93 95 89 84 85 93 97 95 94 86 63 42 32 26 26 28 23 12 6 5 4 3 2 2 3 2 2 1 1 0 0 0 0 0 0 0
98 89 81 80 85 91 95 94 85 74 68 70 74 74 68 61 48 34 29 28 23 21 23 19 13 8 7 5 3 2 2 2 2 1 1 1 0 0 0 0 0 0 0
85 77 73 79 86 88 81 65 46 34 32 37 41 42 40 33 23 17 18 20 18 16 15 14 12 10 9 7 5 3 2 2 1 1 1 0 0 0 0 0 0 0 0
77 74 74 78 79 74 56 31 15 10 10 13 15 17 18 16 10 8 9 10 10 10 9 10 11 11 11 9 7 4 3 2 1 0 0 0 0 0 0 0 0 0 0
84 82 81 78 73 62 41 19 8 7 7 8 8 8 8 7 6 5 5 5 5 5 5 7 9 10 10 9 7 5 4 2 1 0 0 0 0 0 0 0 0 0 0
94 91 87 81 71 58 38 19 9 7 7 7 8 8 7 6 6 5 4 4 4 4 4 5 6 6 6 6 5 4 4 3 1 0 0 0 0 0 0 0 0 0 0